Mosby, MO

11:28 AM CST on December 05, 2019 (GMT -0600)
Clay County Regional

Weather History for KGPH - October, 2019

Change the Weather History Date:

Tuesday, October 22, 2019

  Actual Average (KMKC) Record (KMKC)
Temperature  
Mean Temperature 50 °F -  
Max Temperature 59 °F 64 °F 81 °F (2012)
Min Temperature 41 °F 46 °F 32 °F (2006)
Degree Days  
Heating Degree Days 15    
Moisture  
Dew Point 31 °F    
Average Humidity 53    
Maximum Humidity 76    
Minimum Humidity 27    
Precipitation  
Precipitation 0.00 in - - ()
Sea Level Pressure  
Sea Level Pressure 29.93 in    
Wind  
Wind Speed 10 mph ()    
Max Wind Speed 21 mph    
Max Gust Speed 30 mph    
Visibility 10.0 miles    
Events      
Averages and records for this station are not official NWS values.
T = Trace of Precipitation, MM = Missing Value Source: Averaged Metar Reports

Daily Weather History Graph

Daily Weather History Graph

Search for Another Location

Airport or City:

Astronomy

Oct. 22, 2019 Rise Set
Actual Time 7:34 AM CDT 6:28 PM CDT
Civil Twilight 7:06 AM CDT 6:55 PM CDT
Nautical Twilight 6:35 AM CDT 7:27 PM CDT
Astronomical Twilight 6:04 AM CDT 7:58 PM CDT
Moon 12:47 AM CDT (10/22) 3:36 PM CDT (10/22)
Length of Visible Light 11h 49m
Length of Day
10h 54m
Last Quarter, 37% of the Moon is Illuminated
Oct 22
Last Quarter
Oct 27
New
Nov 4
First Quarter
Nov 12
Full
Nov 19
Last Quarter

Hourly Weather History & Observations

Time (CDT) Temp. Windchill Dew Point Humidity Pressure Visibility Wind Dir Wind Speed Gust Speed Precip Events Conditions
12:15 AM 50.0 °F - 37.4 °F 62% 29.83 in 10.0 mi WNW 16.1 mph 25.3 mph N/A   Unknown
12:35 AM 50.0 °F - 37.4 °F 62% 29.83 in 10.0 mi West 11.5 mph 19.6 mph N/A   Mostly Cloudy
12:55 AM 48.2 °F - 37.4 °F 66% 29.83 in 10.0 mi West 10.4 mph 17.3 mph N/A   Scattered Clouds
1:15 AM 48.2 °F - 37.4 °F 66% 29.83 in 10.0 mi West 9.2 mph 17.3 mph N/A   Clear
1:35 AM 46.4 °F 41.5 °F 37.4 °F 71% 29.84 in 10.0 mi West 10.4 mph 17.3 mph N/A   Clear
1:55 AM 46.4 °F 41.1 °F 37.4 °F 71% 29.84 in 10.0 mi West 11.5 mph 16.1 mph N/A   Clear
2:15 AM 46.4 °F 41.5 °F 35.6 °F 66% 29.84 in 10.0 mi West 10.4 mph 24.2 mph N/A   Clear
2:55 AM 46.4 °F 42.4 °F 35.6 °F 66% 29.85 in 10.0 mi West 8.1 mph 17.3 mph N/A   Clear
3:15 AM 46.4 °F 41.9 °F 35.6 °F 66% 29.85 in 10.0 mi West 9.2 mph 16.1 mph N/A   Clear
3:35 AM 44.6 °F 40.7 °F 35.6 °F 71% 29.85 in 10.0 mi West 6.9 mph - N/A   Clear
4:35 AM 44.6 °F 38.8 °F 33.8 °F 66% 29.85 in 10.0 mi West 11.5 mph - N/A   Clear
4:55 AM 44.6 °F 39.2 °F 32.0 °F 61% 29.86 in 10.0 mi West 10.4 mph 16.1 mph N/A   Clear
5:15 AM 44.6 °F 39.7 °F 32.0 °F 61% 29.86 in 10.0 mi West 9.2 mph 16.1 mph N/A   Clear
5:35 AM 44.6 °F 39.7 °F 32.0 °F 61% 29.87 in 10.0 mi West 9.2 mph 17.3 mph N/A   Clear
5:55 AM 44.6 °F 39.2 °F 32.0 °F 61% 29.88 in 10.0 mi West 10.4 mph 19.6 mph N/A   Clear
6:15 AM 44.6 °F 38.1 °F 32.0 °F 61% 29.88 in 10.0 mi West 13.8 mph 21.9 mph N/A   Clear
6:55 AM 44.6 °F 38.1 °F 30.2 °F 57% 29.90 in 10.0 mi West 13.8 mph 25.3 mph N/A   Clear
7:15 AM 44.6 °F 38.4 °F 30.2 °F 57% 29.90 in 10.0 mi West 12.7 mph 19.6 mph N/A   Clear
7:35 AM 44.6 °F 39.2 °F 30.2 °F 57% 29.91 in 10.0 mi West 10.4 mph 17.3 mph N/A   Clear
8:15 AM 42.8 °F 38.6 °F 32.0 °F 66% 29.93 in 10.0 mi West 6.9 mph - N/A   Clear
8:35 AM 42.8 °F 38.0 °F 32.0 °F 66% 29.93 in 10.0 mi West 8.1 mph 16.1 mph N/A   Clear
8:55 AM 44.6 °F 38.8 °F 32.0 °F 61% 29.95 in 10.0 mi WNW 11.5 mph 17.3 mph N/A   Clear
9:15 AM 44.6 °F 40.2 °F 32.0 °F 61% 29.96 in 10.0 mi WNW 8.1 mph - N/A   Clear
9:35 AM 44.6 °F 38.4 °F 32.0 °F 61% 29.96 in 10.0 mi West 12.7 mph 19.6 mph N/A   Clear
9:55 AM 46.4 °F 40.4 °F 30.2 °F 53% 29.97 in 10.0 mi West 13.8 mph 20.7 mph N/A   Clear
10:15 AM 46.4 °F 40.1 °F 30.2 °F 53% 29.98 in 10.0 mi WNW 15.0 mph 25.3 mph N/A   Scattered Clouds
10:35 AM 48.2 °F - 30.2 °F 50% 29.98 in 10.0 mi West 15.0 mph 23.0 mph N/A   Scattered Clouds
10:55 AM 50.0 °F - 30.2 °F 47% 29.98 in 10.0 mi WNW 17.3 mph 23.0 mph N/A   Clear
11:55 AM 51.8 °F - 28.4 °F 41% 29.99 in 10.0 mi WNW 16.1 mph 24.2 mph N/A   Clear
12:15 PM 51.8 °F - 28.4 °F 41% 29.99 in 10.0 mi West 17.3 mph 21.9 mph N/A   Clear
12:35 PM 53.6 °F - 26.6 °F 35% 29.99 in 10.0 mi West 16.1 mph 25.3 mph N/A   Clear
1:15 PM 53.6 °F - 26.6 °F 35% 29.99 in 10.0 mi NW 13.8 mph 23.0 mph N/A   Clear
1:55 PM 55.4 °F - 24.8 °F 31% 29.98 in 10.0 mi WNW 20.7 mph 29.9 mph N/A   Clear
2:35 PM 55.4 °F - 24.8 °F 31% 29.97 in 10.0 mi WNW 19.6 mph 25.3 mph N/A   Clear
2:55 PM 57.2 °F - 24.8 °F 29% 29.97 in 10.0 mi WNW 19.6 mph 25.3 mph N/A   Clear
3:15 PM 55.4 °F - 23.0 °F 29% 29.97 in 10.0 mi West 17.3 mph 25.3 mph N/A   Clear
3:35 PM 57.2 °F - 23.0 °F 27% 29.97 in 10.0 mi WNW 13.8 mph 25.3 mph N/A   Clear
3:55 PM 57.2 °F - 23.0 °F 27% 29.97 in 10.0 mi WNW 16.1 mph 26.5 mph N/A   Clear
4:15 PM 57.2 °F - 24.8 °F 29% 29.97 in 10.0 mi WNW 16.1 mph 24.2 mph N/A   Clear
4:35 PM 57.2 °F - 26.6 °F 31% 29.98 in 10.0 mi NW 13.8 mph 24.2 mph N/A   Clear
4:55 PM 59.0 °F - 26.6 °F 29% 29.98 in 10.0 mi WNW 13.8 mph 21.9 mph N/A   Clear
5:15 PM 59.0 °F - 26.6 °F 29% 29.98 in 10.0 mi WNW 17.3 mph 23.0 mph N/A   Clear
5:35 PM 59.0 °F - 26.6 °F 29% 29.98 in 10.0 mi WNW 10.4 mph 25.3 mph N/A   Clear
5:55 PM 59.0 °F - 28.4 °F 31% 29.98 in 10.0 mi WNW 9.2 mph - N/A   Clear
6:15 PM 57.2 °F - 28.4 °F 33% 29.98 in 10.0 mi Calm Calm - N/A   Scattered Clouds
6:35 PM 57.2 °F - 28.4 °F 33% 29.98 in 10.0 mi West 10.4 mph - N/A   Scattered Clouds
6:55 PM 55.4 °F - 30.2 °F 38% 29.98 in 10.0 mi Calm Calm - N/A   Clear
7:35 PM 53.6 °F - 30.2 °F 41% 29.98 in 10.0 mi Calm Calm - N/A   Clear
7:55 PM 50.0 °F - 32.0 °F 50% 29.97 in 10.0 mi Calm Calm - N/A   Clear
8:15 PM 48.2 °F - 35.6 °F 62% 29.97 in 10.0 mi Calm Calm - N/A   Clear
8:35 PM 44.6 °F - 37.4 °F 76% 29.97 in 10.0 mi Calm Calm - N/A   Clear
8:55 PM 44.6 °F - 35.6 °F 71% 29.97 in 10.0 mi Calm Calm - N/A   Clear
9:15 PM 46.4 °F - 35.6 °F 66% 29.97 in 10.0 mi Calm Calm - N/A   Clear
9:35 PM 42.8 °F - 35.6 °F 76% 29.96 in 10.0 mi Calm Calm - N/A   Clear
9:55 PM 42.8 °F - 35.6 °F 76% 29.96 in 10.0 mi Calm Calm - N/A   Clear
10:35 PM 41.0 °F - 33.8 °F 76% 29.96 in 10.0 mi Calm Calm - N/A   Clear
11:15 PM 44.6 °F - 33.8 °F 66% 29.96 in 10.0 mi Calm Calm - N/A   Clear
11:55 PM 44.6 °F - 33.8 °F 66% 29.96 in 10.0 mi Calm Calm - N/A   Clear